Location: Caltech
(34.1382°N, 118.1253°W)
Time: 15:36:35
(UTC-07:00)

PANSAT - Visible Passes

Search period start: 23 May 2017 00:00
Search period end: 02 June 2017 00:00
Orbit: 477 x 484 km, 28.5° (Epoch: 22 May)

Date Brightness Start Highest point End Pass type
(mag) Time Alt. Az. Time Alt. Az. Time Alt. Az.
24 May 10.0 21:28:50 10° SSW 21:28:52 10° SSW 21:28:52 10° SSW visible
25 May 9.2 20:59:18 10° SSW 21:01:44 16° SSE 21:01:51 16° SSE visible
26 May 9.3 20:29:46 10° SSW 20:32:13 17° SSE 20:34:37 10° ESE visible
26 May 10.0 22:08:16 10° WSW 22:08:48 13° SW 22:08:48 13° SW visible
27 May 8.7 21:38:45 10° WSW 21:41:22 29° SSW 21:41:22 29° SSW visible
28 May 8.4 21:09:14 10° WSW 21:12:37 31° S 21:13:45 26° SE visible
29 May 8.4 20:39:43 10° WSW 20:43:07 32° S 20:46:02 13° ESE visible
29 May 9.9 22:19:16 10° WSW 22:20:10 15° WSW 22:20:10 15° WSW visible
30 May 8.8 21:49:45 10° WSW 21:52:20 28° SSW 21:52:20 28° SSW visible
31 May 8.5 21:20:15 10° WSW 21:23:37 31° S 21:24:25 28° SSE visible
01 Jun 8.6 20:50:44 10° WSW 20:54:05 30° S 20:56:28 16° SE visible
